Regional Weather Roundup
Issued by NWS

Home | Current Version | Previous Version | Graphics & Text | Print | Product List | Glossary On
Versions: 1 2 3 4 5 6 7 8 9 10 11 12 13 14 15 16 17 18 19 20 21 22 23 24 25 26 27 28 29 30 31 32 33 34 35 36 37 38 39 40 41 42 43 44 45 46 47 48 49 50
000
ASUS43 KFSD 190010
RWRSD

WEATHER ROUNDUP FOR SOUTH DAKOTA
NATIONAL WEATHER SERVICE SIOUX FALLS SD
700 PM CDT FRI APR 18 2014

NOTE: "FAIR" INDICATES FEW OR NO CLOUDS BELOW 12,000 FEET WITH NO
SIGNIFICANT WEATHER AND/OR OBSTRUCTIONS TO VISIBILITY.


SDZ001>005-009-010-012>017-190100-
NORTHWEST AND NORTH CENTRAL SOUTH DAKOTA

CITY           SKY/WX    TMP DP  RH WIND       PRES   REMARKS
BUFFALO          N/A     67  41  38 N15       29.54R
FAITH            N/A     73  35  25 S17       29.54F
MOBRIDGE       PTSUNNY   73  37  27 SE25      29.56F
$$

SDZ012>016-024>037-041>051-057-063-072>074-190100-
SOUTHWEST AND SOUTH CENTRAL SOUTH DAKOTA

CITY           SKY/WX    TMP DP  RH WIND       PRES   REMARKS
RAPID CTY ARPT CLOUDY    75  40  28 S15G21    29.60F
PIERRE         CLOUDY    75  37  25 S25G32    29.63F
CUSTER         CLOUDY    63  33  32 SW6       29.74F
ELLSWORTH AFB  CLOUDY    75  41  29 S13       29.61S
PHILIP         CLOUDY    78  37  22 S21G29    29.59F
PINE RIDGE     CLOUDY    75  35  23 S24G30    29.67F
SPEARFISH      FAIR      70  34  26 SW18G26   29.64R
WINNER         FAIR      72  41  32 S26G36    29.74F
$$

SDZ004>011-016>023-039-040-190100-
NORTHEAST SOUTH DAKOTA

CITY           SKY/WX    TMP DP  RH WIND       PRES   REMARKS
ABERDEEN       MOSUNNY   66  39  37 SE32G45   29.79F
WATERTOWN      MOSUNNY   60  36  40 SE21G30   29.93F
SISSETON         N/A     49  37  63 SE30G41   29.96F
$$

SDZ017-020-022-023-036>040-048>070-190100-
SOUTHEAST SOUTH DAKOTA

CITY           SKY/WX    TMP DP  RH WIND       PRES   REMARKS
SIOUX FALLS    CLOUDY    63  36  36 S24G32    29.97F
HURON          CLOUDY    68  39  34 S17G35    29.80F
CHAMBERLAIN      N/A     70  41  34 S28G39    29.75F
MITCHELL       CLOUDY    68  41  37 S26G38    29.86F
YANKTON        CLOUDY    66  39  37 S18G33    29.95F
$$

ABBREVIATIONS USED IN REMARKS
   TC - TEMPERATURE IN CELSIUS
  WCI - WIND CHILL INDEX
   HX - HEAT INDEX
  VSB - VISIBILITY




USA.gov is the U.S. government's official web portal to all federal, state and local government web resources and services.